FW9919 Weather Reports


Display with metric or nautical units.
time (UTC)temp
F
wind
direction
speed
MPH
gust
MPH
rain 1hr
in
rain 24hr
in
rain mn
in
humidity
%
barometer
mb
20260503184552 56 172 6.0 9.0 0.00 0.01 0.01 85 1014.9
20260503183051 56 174 7.0 10.0 0.00 0.01 0.01 84 1015.0
20260503181601 56 0 0.0 1.0 0.00 0.01 0.01 87 1014.7
20260503180054 55 0 0.0 6.0 0.00 0.01 0.01 87 1014.6
20260503174554 54 158 6.0 10.0 0.00 0.01 0.01 86 1014.7
20260503173059 54 131 4.0 7.0 0.00 0.01 0.01 88 1014.6
20260503171554 54 182 4.0 6.0 0.00 0.01 0.01 87 1014.7
20260503081551 55 292 7.0 10.0 0.00 0.00 0.00 81 1013.0
20260503071601 56 271 4.0 9.0 0.00 0.00 0.00 82 1013.0
20260503060108 56 295 2.0 7.0 0.00 0.00 0.00 82 1013.2
20260503054558 56 317 2.0 10.0 0.00 0.00 0.00 81 1013.3
20260503053052 56 257 6.0 10.0 0.00 0.00 0.00 81 1013.4
20260503051553 56 271 5.0 8.0 0.00 0.00 0.00 81 1013.5
20260503044556 56 257 2.0 5.0 0.00 0.00 0.00 80 1013.5
20260503043056 56 273 4.0 8.0 0.00 0.00 0.00 80 1013.5
20260503041553 56 276 5.0 9.0 0.00 0.00 0.00 80 1013.5
20260503040057 56 273 5.0 9.0 0.00 0.00 0.00 80 1013.4
20260503034552 56 291 4.0 9.0 0.00 0.00 0.00 80 1013.2
20260503033107 56 266 5.0 9.0 0.00 0.00 0.00 80 1013.0
20260503031552 56 242 4.0 10.0 0.00 0.00 0.00 80 1012.8
20260503030052 56 263 4.0 9.0 0.00 0.00 0.00 80 1012.9
20260503024554 56 273 4.0 10.0 0.00 0.00 0.00 81 1012.8
20260503023101 56 290 4.0 10.0 0.00 0.00 0.00 81 1012.6
20260503021604 56 298 6.0 11.0 0.00 0.00 0.00 81 1012.5
20260503020052 56 294 5.0 10.0 0.00 0.00 0.00 81 1012.6
20260503014554 56 284 6.0 12.0 0.00 0.00 0.00 82 1012.7
20260503013103 56 260 8.0 11.0 0.00 0.00 0.00 82 1012.8
20260503011603 56 238 5.0 11.0 0.00 0.00 0.00 83 1012.8
20260503010055 57 234 8.0 13.0 0.00 0.00 0.00 82 1012.9
20260503004552 57 250 6.0 14.0 0.00 0.00 0.00 81 1012.9
20260503003101 57 261 8.0 12.0 0.00 0.00 0.00 81 1012.7
20260503001551 57 271 5.0 10.0 0.00 0.00 0.00 82 1012.9
20260502234551 57 323 6.0 12.0 0.00 0.00 0.00 83 1013.2
20260502233059 57 309 7.0 13.0 0.00 0.00 0.00 83 1013.2
20260502231551 57 263 7.0 15.0 0.00 0.00 0.00 83 1013.4
20260502230053 57 280 9.0 13.0 0.00 0.00 0.00 83 1013.3
20260502224552 57 269 7.0 12.0 0.00 0.00 0.00 83 1013.8
20260502223053 57 300 4.0 11.0 0.00 0.00 0.00 84 1014.1
20260502221554 56 271 8.0 13.0 0.00 0.00 0.00 84 1014.2
20260502220055 56 269 5.0 12.0 0.00 0.00 0.00 85 1014.4
20260502214552 56 256 9.0 13.0 0.00 0.00 0.00 87 1014.5
20260502213051 56 263 11.0 15.0 0.00 0.00 0.00 86 1014.6
20260502211555 56 228 10.0 13.0 0.00 0.00 0.00 84 1014.7
20260502210056 56 246 8.0 11.0 0.00 0.00 0.00 83 1014.8
20260502204607 56 218 7.0 11.0 0.00 0.00 0.00 85 1014.7
20260502203051 56 246 5.0 9.0 0.00 0.00 0.00 86 1014.9
20260502201557 56 255 5.0 10.0 0.00 0.00 0.00 86 1015.3
20260502200056 56 259 4.0 7.0 0.00 0.00 0.00 85 1015.4
20260502194551 56 207 4.0 6.0 0.00 0.00 0.00 85 1015.4
20260502193054 56 183 4.0 6.0 0.00 0.00 0.00 85 1015.7
20260502191601 56 183 4.0 7.0 0.00 0.00 0.00 84 1016.0
20260502190054 56 183 5.0 6.0 0.00 0.00 0.00 84 1016.0